Volver al catálogo

CZ-3B R/B

ActivoHEO
NORAD 44796·ROCKET BODY·🇨🇳 China

Lanzado Nov 23, 2019 desde Xichang Satellite Launch Center

Loading…

Próximos Pases (próximas 24 horas)

TLE

ActualizadoSource: Space-Track

Época: Sep 14, 2026, 11:29 UTC

1 44796U 19078D   26257.47906381  .00000256  00000-0  35965-3 0  9999
2 44796  54.9628 336.0736 5405217 295.0211  19.2318  4.81673316117752

Sigue CZ-3B R/B en tiempo real con AllMySat

Download on the App Store